Location: *
(6.0000°S, 32.3997°W)
Time: 14:03:13
(UTC+00:00)

Atlas Centaur 2 - Pass Details

Date: 01 April 2020
Orbit: 459 x 1310 km, 30.4° (Epoch: 04 June)

Event Time Altitude Azimuth Distance (km) Brightness Sun altitude
Rises 22:14:13 0° 311° (NW) 3,361 6.0 -30.5°
Reaches altitude 10° 22:17:05 10° 315° (NW) 2,277 5.0 -31.3°
Enters shadow 22:19:34 25° 327° (NNW) 1,380 3.6 -31.9°
